EDT,Max TemperatureF,Mean TemperatureF,Min TemperatureF,Max Dew PointF,MeanDew PointF,Min DewpointF,Max Humidity, Mean Humidity, Min Humidity, Max Sea Level PressureIn, Mean Sea Level PressureIn, Min Sea Level PressureIn, Max VisibilityMiles, Mean VisibilityMiles, Min VisibilityMiles, Max Wind SpeedMPH, Mean Wind SpeedMPH, Max Gust SpeedMPH,PrecipitationIn, CloudCover, Events, WindDirDegrees
2013-5-1,75,70,66,66,63,60,94,80,73,30.08,30.05,30.00,10,10,8,18,9,29,0.00,7,Rain,48
2013-5-2,71,70,66,68,66,64,94,87,83,30.04,29.97,29.93,10,6,2,18,11,32,2.76,8,Rain,75
2013-5-3,71,68,66,65,63,57,94,85,61,29.94,29.88,29.85,10,7,3,23,16,33,1.29,8,Rain,86
2013-5-4,71,68,66,67,65,58,90,86,68,29.85,29.78,29.72,10,5,1,24,15,37,0.87,8,Rain-Thunderstorm,88
2013-5-5,78,68,60,68,59,45,94,76,32,29.90,29.80,29.72,10,9,3,15,9,22,0.05,5,Rain,234
2013-5-6,73,65,57,57,47,42,75,52,33,29.99,29.94,29.87,10,10,10,13,8,18,0.00,1,,272
2013-5-7,79,68,57,55,53,49,78,57,39,30.04,29.98,29.92,10,10,10,18,9,28,0.00,3,,247
2013-5-8,82,69,57,63,56,52,87,64,36,30.12,30.06,30.01,10,10,9,13,4,18,0.00,2,,258
2013-5-9,82,72,62,63,59,55,90,66,38,30.15,30.12,30.09,10,9,5,10,4,,0.00,1,,197
2013-5-10,87,74,62,68,62,58,90,63,40,30.14,30.08,30.02,10,10,6,13,5,18,0.00,1,,163
2013-5-11,90,78,69,67,65,63,90,71,43,30.04,30.00,29.94,10,9,2,21,6,31,0.21,3,Rain-Thunderstorm,244
2013-5-12,86,76,68,66,63,57,90,68,41,30.03,29.99,29.94,10,10,9,15,7,21,0.01,2,,269
2013-5-13,79,68,59,55,47,38,83,47,24,30.16,30.10,30.01,10,10,10,13,7,18,0.00,1,,337
2013-5-14,78,66,54,54,45,32,81,49,21,30.25,30.20,30.17,10,10,10,10,3,,0.00,0,,39
2013-5-15,84,68,55,60,53,48,87,58,31,30.25,30.17,30.10,10,10,10,13,3,,0.00,0,,161
2013-5-16,84,73,64,65,61,58,80,65,47,30.14,30.09,30.05,10,10,10,13,6,,0.00,0,,176
2013-5-17,84,74,64,67,63,59,87,69,44,30.13,30.10,30.06,10,10,4,12,4,26,0.00,0,,135
2013-5-18,86,75,66,72,67,64,93,75,49,30.15,30.10,30.05,10,10,5,13,6,21,0.13,2,Rain,149
2013-5-19,86,76,69,72,69,66,91,78,61,30.11,30.07,30.03,10,9,1,15,6,20,0.23,3,Rain-Thunderstorm,169
2013-5-20,82,76,71,72,69,66,94,79,62,30.11,30.07,30.04,10,10,10,10,5,,0.06,2,Rain,172
2013-5-21,82,75,68,71,68,66,94,80,62,30.07,30.03,29.98,10,8,1,16,3,,0.00,3,Rain-Thunderstorm,126
2013-5-22,82,74,66,72,68,63,94,82,65,30.01,29.98,29.94,10,8,2,9,2,17,0.19,3,Rain,112
2013-5-23,89,78,69,69,67,65,90,73,46,29.99,29.96,29.91,10,9,2,10,2,,0.02,1,,170
2013-5-24,89,79,69,68,61,51,90,57,28,30.13,30.02,29.95,10,10,9,16,5,24,0.00,0,,319
2013-5-25,80,72,62,62,54,50,87,55,36,30.28,30.20,30.12,10,10,10,15,5,21,0.00,0,,69
2013-5-26,82,70,59,59,53,46,87,57,29,30.25,30.21,30.17,10,10,10,12,3,18,0.00,0,,97
2013-5-27,82,71,60,62,60,56,90,66,49,30.23,30.20,30.16,10,10,10,12,3,18,0.00,1,,126
2013-5-28,82,74,66,66,64,61,84,65,52,30.21,30.17,30.15,10,10,10,14,7,22,0.00,3,,120
2013-5-29,84,78,71,72,69,66,84,72,61,30.19,30.16,30.12,10,10,10,15,8,24,0.00,5,,109
2013-5-30,86,78,73,73,71,68,89,75,58,30.20,30.15,30.12,10,9,2,18,8,24,0.14,5,Rain,117
2013-5-31,84,78,73,70,69,68,85,70,58,30.18,30.14,30.11,10,10,10,17,9,25,0.00,4,,126